Dauntless Aviation
Greetings, Guest! To participate, [sign up for a free account] or [log in]
Airports North America United States Texas
63TE

FLYING S RANCH AIRPORT

KENNARD, TX, USA

Airport Info

Location

Latitude / Longitude: 31°21'12"N / 95°12'20"W
  31°21.2109'N / 95°12.3463'W
  31.3535 / -95.2058
Elevation: 370 ft. (estimated)
Variation: 06E (1985)
From city: 01 miles SW of KENNARD, TX

Operations

Facility use: Private
Sectional chart: HOUSTON
Control tower: no
Boundary ARTCC: HOUSTON
FSS: MONTGOMERY COUNTY [1-800-WX-BRIEF]
Segmented circle: no

Communications

Nearby radio navigation aids

VOR radial/distance VOR name Freq Var
LFK 295oT/27.6 LUFKIN VORTAC 112.10 05E
 
NDB name Hdg/Dist Freq Var ID
NADOS 252oT/26.1 253 05E OC
CHEROKEE COUNTY 179oT/31.0 263 05E JSO
NACOGDOCHES 235oT/31.1 391 05E GXD
PALESTINE 135oT/36.0 375 04E PSN

Services

Runway Information

Runway 14/32

Dimensions: 2000 x 100 ft.
Surface: NATURAL SOIL,NO SPECIAL SURFACE TREATMENT
 
Runway 14
Runway 32
 

Additional Remarks

Instrument Procedures

No published instrument procedures available
Topographic chart at:
Satellite photo at:
Airport distance calculator
From:
Weather Reports

METAR

KDKR
10.5nm SW
KDKR 230255Z AUTO 11005KT A2980 RMK AO2
KLFK
24.5nm E
KLFK 230253Z AUTO 12015KT 9SM -RA OVC006 19/17 A2977 RMK AO2 LTG DSNT NW RAB0157 CIG 005V010 SLP079 P0009 60011 T01940172 58024
KOCH
28.1nm NE
KOCH 230255Z AUTO 10010G15KT 6SM VCTS OVC007 17/16 A2978 RMK AO1 LTG DSNT SW TSB54 P0010 60025 57030
KJSO
30.8nm NW
KJSO 230255Z AUTO 14010G15KT 7SM -RA SCT034 BKN047 BKN065 17/16 A2979 RMK AO2 LTG DSNT NE THRU SW P0011 T01750163
KPSN
36.1nm NW
KPSN 230255Z AUTO 35004KT 10SM DZ SCT006 BKN013 OVC018 16/15 A2983 RMK AO2 P0016 T01600153

TAF

KLFK
24.5nm E
KLFK 222346Z 2300/2324 10008KT 6SM -SHRA BKN015 TEMPO 2300/2302 3SM SHRA BR SCT006 BKN015 FM230200 13009KT 2SM TSRA BR OVC008CB FM230400 14008KT 2SM TSRA BR OVC008CB FM231000 18005KT 4SM BR VCTS OVC004CB FM231600 21008KT P6SM BKN015 FM231800 22012G19KT P6SM SKC
Safelog

 

Dauntless Aviation

© 2007-2014 Dauntless Aviation, all rights reserved
Information provided via PilotNav comes from a variety of official and unofficial data sources. As errors are possible, do not use PilotNav for primary flight planning purposes. Verify any information that you receive via PilotNav with current and canonical charts and other official documents. The material in this database is subject to database copyrights held by Dauntless Aviation and may not be copied without the express permission of Dauntless Aviation - licenses for use of part of all of this data are available for purchase; enquire via the Dauntless Aviation helpdesk. A number of mechanisms and markers exist in the database to protect against and identify infringement / copyright. Automated queries against this website are stictly prohibited, and all activity is logged and analyzed.